Charlevoix, MI

4:42 AM EST on December 04, 2016 (GMT -0500)
Charlevoix Municipal

Weather History for KCVX - July, 2014

Change the Weather History Date:

Monday, July 28, 2014

  Actual Average Record
Temperature  
Mean Temperature 60 °F -  
Max Temperature 65 °F 80 °F 85 °F (2015)
Min Temperature 55 °F 62 °F 51 °F (2003)
Degree Days  
Heating Degree Days 5    
Growing Degree Days 10 (Base 50)    
Moisture  
Dew Point 50 °F    
Average Humidity 71    
Maximum Humidity 89    
Minimum Humidity 54    
Precipitation  
Precipitation 0.00 in - - ()
Sea Level Pressure  
Sea Level Pressure 30.01 in    
Wind  
Wind Speed 12 mph (NNW)    
Max Wind Speed 17 mph    
Max Gust Speed 23 mph    
Visibility 10 miles    
Events      
Averages and records for this station are not official NWS values.
T = Trace of Precipitation, MM = Missing Value Source: NWS Daily Summary

Daily Weather History Graph

Daily Weather History Graph

Search for Another Location

Airport or City:

Trip Planner

Search our weather history database for the weather conditions in past years. The results will help you decide how hot, cold, wet, or windy it might be!

Date:

Astronomy

Jul. 28, 2014 Rise Set
Actual Time 6:21 AM EDT 9:13 PM EDT
Civil Twilight 5:46 AM EDT 9:47 PM EDT
Nautical Twilight 5:02 AM EDT 10:31 PM EDT
Astronomical Twilight 4:10 AM EDT 11:23 PM EDT
Moon 8:09 AM EDT (7/28) 9:45 PM EDT (7/28)
Length of Visible Light 16h 01m
Length of Day
14h 52m
Waxing Crescent, 3% of the Moon is Illuminated
Jul 28
Waxing Crescent
Aug 3
First Quarter
Aug 10
Full
Aug 17
Last Quarter
Aug 25
New

Hourly Weather History & Observations

Time (EDT) Temp. Dew Point Humidity Pressure Visibility Wind Dir Wind Speed Gust Speed Precip Events Conditions
12:14 AM 62.1 °F 55.4 °F 79% 29.89 in 10.0 mi North 16.1 mph 23.0 mph N/A   Overcast
12:55 AM 61.9 °F 56.3 °F 82% 29.91 in 10.0 mi North 13.8 mph 17.3 mph N/A   Overcast
1:14 AM 61.9 °F 56.3 °F 82% 29.91 in 10.0 mi North 12.7 mph 19.6 mph N/A   Overcast
1:35 AM 61.7 °F 56.5 °F 83% 29.91 in 10.0 mi North 15.0 mph 20.7 mph N/A   Overcast
1:55 AM 61.7 °F 56.8 °F 84% 29.92 in 10.0 mi North 11.5 mph 18.4 mph N/A   Overcast
2:14 AM 61.3 °F 56.5 °F 84% 29.92 in 10.0 mi North 11.5 mph 18.4 mph N/A   Overcast
2:35 AM 61.2 °F 56.5 °F 85% 29.92 in 10.0 mi North 10.4 mph - N/A   Mostly Cloudy
2:55 AM 60.4 °F 55.8 °F 85% 29.92 in 10.0 mi North 10.4 mph 19.6 mph N/A   Scattered Clouds
3:15 AM 59.5 °F 55.6 °F 87% 29.92 in 10.0 mi North 10.4 mph - N/A   Clear
3:35 AM 58.6 °F 55.2 °F 88% 29.92 in 10.0 mi North 11.5 mph 17.3 mph N/A   Clear
4:15 AM 57.7 °F 54.5 °F 89% 29.93 in 10.0 mi North 12.7 mph 18.4 mph N/A   Overcast
4:35 AM 57.7 °F 54.5 °F 89% 29.94 in 10.0 mi North 12.7 mph 19.6 mph N/A   Overcast
4:54 AM 57.6 °F 54.0 °F 88% 29.94 in 10.0 mi North 10.4 mph 19.6 mph N/A   Mostly Cloudy
5:15 AM 57.9 °F 53.6 °F 86% 29.94 in 10.0 mi North 13.8 mph 18.4 mph N/A   Overcast
5:35 AM 58.1 °F 53.6 °F 85% 29.95 in 10.0 mi North 11.5 mph 18.4 mph N/A   Overcast
5:54 AM 57.9 °F 53.1 °F 84% 29.96 in 10.0 mi North 13.8 mph 17.3 mph N/A   Overcast
6:15 AM 57.4 °F 52.5 °F 84% 29.97 in 10.0 mi NNE 11.5 mph 17.3 mph N/A   Overcast
6:35 AM 57.2 °F 51.6 °F 82% 29.97 in 10.0 mi North 11.5 mph 18.4 mph N/A   Overcast
6:54 AM 56.8 °F 49.8 °F 77% 29.98 in 10.0 mi NNE 11.5 mph 18.4 mph N/A   Overcast
7:15 AM 56.5 °F 49.5 °F 77% 29.99 in 10.0 mi NNE 10.4 mph - N/A   Overcast
7:35 AM 56.3 °F 48.6 °F 75% 30.00 in 10.0 mi NNE 11.5 mph 16.1 mph N/A   Overcast
7:54 AM 55.4 °F 47.7 °F 75% 30.00 in 10.0 mi NNE 12.7 mph 20.7 mph N/A   Overcast
8:15 AM 55.4 °F 46.9 °F 73% 30.01 in 10.0 mi NNE 12.7 mph 17.3 mph N/A   Overcast
8:34 AM 56.3 °F 45.1 °F 66% 30.02 in 10.0 mi NNE 11.5 mph 19.6 mph N/A   Overcast
8:55 AM 56.3 °F 44.6 °F 65% 30.03 in 10.0 mi NE 11.5 mph 19.6 mph N/A   Mostly Cloudy
9:15 AM 56.7 °F 44.2 °F 63% 30.04 in 10.0 mi NE 11.5 mph 16.1 mph N/A   Scattered Clouds
9:34 AM 56.8 °F 43.9 °F 62% 30.04 in 10.0 mi NNE 16.1 mph 20.7 mph N/A   Clear
9:55 AM 57.6 °F 43.9 °F 60% 30.05 in 10.0 mi NNE 15.0 mph 21.9 mph N/A   Scattered Clouds
10:15 AM 57.7 °F 43.2 °F 58% 30.05 in 10.0 mi NNE 17.3 mph 23.0 mph N/A   Mostly Cloudy
10:35 AM 56.5 °F 43.7 °F 62% 30.06 in 10.0 mi NNE 15.0 mph 19.6 mph N/A   Overcast
10:55 AM 56.8 °F 43.0 °F 60% 30.06 in 10.0 mi NNE 15.0 mph 19.6 mph N/A   Overcast
11:14 AM 57.2 °F 44.2 °F 62% 30.06 in 10.0 mi NNE 12.7 mph 19.6 mph N/A   Overcast
11:35 AM 57.9 °F 44.2 °F 60% 30.06 in 10.0 mi NNE 12.7 mph 17.3 mph N/A   Overcast
11:55 AM 58.6 °F 44.4 °F 59% 30.06 in 10.0 mi North 10.4 mph 19.6 mph N/A   Overcast
12:14 PM 59.4 °F 45.1 °F 59% 30.06 in 10.0 mi North 10.4 mph 16.1 mph N/A   Overcast
12:35 PM 59.4 °F 46.4 °F 62% 30.06 in 10.0 mi North 11.5 mph 16.1 mph N/A   Overcast
12:55 PM 61.0 °F 48.6 °F 64% 30.07 in 10.0 mi NNW 12.7 mph 17.3 mph N/A   Mostly Cloudy
1:14 PM 60.8 °F 49.1 °F 65% 30.06 in 10.0 mi NNW 12.7 mph 17.3 mph N/A   Mostly Cloudy
1:35 PM 61.5 °F 48.2 °F 62% 30.06 in 10.0 mi North 10.4 mph - N/A   Scattered Clouds
1:54 PM 62.1 °F 47.3 °F 58% 30.05 in 10.0 mi NNW 10.4 mph - N/A   Clear
2:15 PM 63.0 °F 47.1 °F 56% 30.05 in 10.0 mi North 9.2 mph - N/A   Clear
2:35 PM 63.1 °F 47.3 °F 56% 30.05 in 10.0 mi NNW 10.4 mph - N/A   Clear
2:54 PM 64.0 °F 48.0 °F 56% 30.05 in 10.0 mi NNW 9.2 mph - N/A   Clear
3:15 PM 64.4 °F 47.5 °F 54% 30.05 in 10.0 mi NNW 9.2 mph - N/A   Clear
3:35 PM 65.1 °F 48.0 °F 54% 30.05 in 10.0 mi NNW 9.2 mph - N/A   Clear
4:15 PM 65.8 °F 50.4 °F 57% 30.05 in 10.0 mi WNW 11.5 mph - N/A   Clear
4:35 PM 65.5 °F 49.5 °F 56% 30.05 in 10.0 mi WNW 12.7 mph 16.1 mph N/A   Clear
4:54 PM 65.1 °F 50.0 °F 58% 30.05 in 10.0 mi West 10.4 mph - N/A   Scattered Clouds
5:15 PM 65.7 °F 50.4 °F 58% 30.05 in 10.0 mi West 12.7 mph - N/A   Mostly Cloudy
5:35 PM 64.9 °F 51.4 °F 62% 30.04 in 10.0 mi West 13.8 mph - N/A   Scattered Clouds
5:54 PM 64.0 °F 51.6 °F 64% 30.04 in 10.0 mi West 12.7 mph - N/A   Clear
6:15 PM 63.9 °F 51.1 °F 63% 30.04 in 10.0 mi West 12.7 mph - N/A   Clear
6:35 PM 63.3 °F 51.4 °F 65% 30.04 in 10.0 mi West 10.4 mph - N/A   Scattered Clouds
6:54 PM 63.1 °F 51.3 °F 65% 30.04 in 10.0 mi West 10.4 mph - N/A   Scattered Clouds
7:15 PM 62.4 °F 51.3 °F 67% 30.03 in 10.0 mi West 10.4 mph - N/A   Scattered Clouds
7:35 PM 62.6 °F 51.8 °F 68% 30.04 in 10.0 mi West 12.7 mph - N/A   Mostly Cloudy
7:54 PM 61.7 °F 51.1 °F 68% 30.03 in 10.0 mi West 11.5 mph - N/A   Mostly Cloudy
8:15 PM 61.7 °F 51.8 °F 70% 30.03 in 10.0 mi WSW 8.1 mph - N/A   Overcast
8:35 PM 61.2 °F 51.1 °F 69% 30.03 in 10.0 mi West 10.4 mph - N/A   Overcast
8:54 PM 60.8 °F 51.1 °F 70% 30.03 in 10.0 mi WSW 9.2 mph - N/A   Overcast
9:15 PM 60.6 °F 51.1 °F 71% 30.03 in 10.0 mi WSW 9.2 mph - N/A   Overcast
9:35 PM 60.1 °F 51.3 °F 73% 30.03 in 10.0 mi WSW 8.1 mph - N/A   Overcast
9:55 PM 59.9 °F 51.8 °F 75% 30.03 in 10.0 mi WSW 8.1 mph - N/A   Overcast
10:15 PM 59.0 °F 51.8 °F 77% 30.03 in 10.0 mi SSW 4.6 mph - N/A   Overcast
10:55 PM 57.9 °F 52.3 °F 82% 30.02 in 10.0 mi WSW 6.9 mph - N/A   Clear
11:15 PM 57.7 °F 52.9 °F 84% 30.02 in 10.0 mi WSW 6.9 mph - N/A   Clear
11:35 PM 58.3 °F 53.8 °F 85% 30.01 in 10.0 mi West 9.2 mph - N/A   Clear
11:55 PM 59.2 °F 53.6 °F 82% 30.01 in 10.0 mi West 11.5 mph - N/A   Clear